Zurück zum Katalog

IRIDIUM 139

AktivKommunikationPO
NORAD 42963·PAYLOAD·🇺🇸 United States

Gestartet Oct 9, 2017 von Vandenberg Space Force Base

Loading…

Nächste Überflüge (nächste 24 Stunden)

TLE

AktuellSource: CelesTrak SupGP

Epoche: Sep 14, 2026, 20:52 UTC

1 42963C 17061J   26257.86979167 -.00001593  00000+0 -56946-3 0  2573
2 42963  86.4030 347.8466 0002181  95.6807  44.4049 14.34219668    12

Verfolge IRIDIUM 139 in Echtzeit mit AllMySat

Download on the App Store